Location: Aurora Center
(43.5271°N, 98.5894°W)
Time: 10:24:03
(UTC-05:00)

ACS3 Solar Sail - Pass Details

Date: 26 June 2024
Orbit: 992 x 1023 km, 97.4° (Epoch: 12 July)

Event Time Altitude Azimuth Distance (km) Brightness Sun altitude
Exits shadow 23:50:52 14° 204° (SSW) 2,443 6.5 -18.8°
Maximum altitude 23:55:34 37° 266° (W) 1,511 5.9 -19.2°
Drops below altitude 10° 00:01:16 10° 332° (NNW) 2,764 8.4 -19.6°
Sets 00:03:59 0° 341° (NNW) 3,717 9.5 -19.8°
